Flag for Germany Weather past 2 weeks in Zeitz, Saxony-Anhalt, Germany

Now
72 °F

Overcast.


Feels Like: 75 °F
Forecast: 64 / 72 °F
Wind: 6 mph from Northwest

Location: Gera-Leumnitz

Current Time: Jul 7, 2015 at 10:47:26 PM

Latest Report: Jul 7, 2015 at 10:00 PM


Visibility: 28 mi

Pressure: 29.71 "Hg

Humidity: 68%

Dew point: 61 °F

Location of ZeitzLocation

Historic Weather in Zeitz — Graph

°F

Zeitz temperature yesterday

Maximum temperature yesterday: 78 °F (at 6:00 PM)
Minimum temperature yesterday: 63 °F (at 8:00 AM)
Average temperature yesterday: 70 °F

Past Weeks' High & Low Weather Summary

 TemperatureHumidityPressure
High94 °F (Jul 4, 5:00 PM)99% (Jun 23, 3:00 AM)30.24 "Hg (Jun 23, 3:00 AM)
Low46 °F (Jun 25, 4:00 AM)28% (Jul 4, 4:00 PM)29.64 "Hg (Jul 7, 9:00 PM)
Average68 °F66%30.09 "Hg
* Reported Jun 22 9:00 PM — Jul 7 9:00 PM, Zeitz, Weather by CustomWeather, © 2015

Note: Actual official high and low records may vary slightly from our data, if they occured in-between our weather recording intervals... More about our weather records

Advertising

Zeitz weather history for previous 24 hours

 ConditionsComfort  
Time TempWeatherWind HumidityBarometerVisibility
9:00 PM
Tue, Jul 7
82 °FOvercast.3 mph49%29.64 "Hg19 mi
8:00 PM85 °FOvercast.2 mph45%29.66 "Hg22 mi
7:00 PM90 °FPassing clouds.5 mph33%29.66 "Hg25 mi
6:00 PM90 °FPartly sunny.3 mph36%29.71 "Hg25 mi
5:00 PM90 °FPartly sunny.5 mph34%29.74 "Hg22 mi
4:00 PM90 °FScattered clouds.6 mph36%29.76 "Hg25 mi
3:00 PM89 °FPassing clouds.5 mph38%29.79 "Hg25 mi
2:00 PM88 °FPartly sunny.6 mph36%29.83 "Hg28 mi
1:00 PM85 °FPartly sunny.2 mph36%29.87 "Hg25 mi
12:00 PM82 °FScattered clouds.3 mph34%29.90 "Hg25 mi
11:00 AM80 °FPartly sunny.2 mph35%29.93 "Hg25 mi
10:00 AM76 °FScattered clouds.3 mph50%29.95 "Hg28 mi
9:00 AM70 °FPassing clouds.3 mph63%29.98 "Hg22 mi
8:00 AM64 °FSunny.3 mph74%30.01 "Hg22 mi
7:00 AM60 °FSunny.2 mph86%30.03 "Hg19 mi
6:00 AM55 °FSunny.2 mph93%30.05 "Hg19 mi
5:00 AM56 °FClear.3 mph91%30.05 "Hg9 mi
4:00 AM56 °FClear.2 mph95%30.06 "Hg6 mi
3:00 AM59 °FClear.2 mph89%30.07 "Hg17 mi
2:00 AM59 °FClear.1 mph88%30.08 "Hg14 mi
1:00 AM64 °FClear.2 mph74%30.09 "Hg18 mi
12:00 AM66 °FClear.1 mph66%30.09 "Hg25 mi
11:00 PM
Mon, Jul 6
66 °FClear.1 mph66%30.09 "Hg22 mi
10:00 PM71 °FClear.1 mph52%30.08 "Hg34 mi
Weather by CustomWeather, © 2015

See weather overviewHow to use our weather pages